H1 CPF 2 NER 2024 6 25 9 177 01 glonass146 H2 2216101 9146 54377 2024 6 25 0 0 0 2024 6 28 23 45 0 900 1 1 0 0 0 1 H9 10 0 60486 0.00000 0 5173661.112 -20404933.565 -14419913.818 10 0 60486 900.00000 0 5903351.427 -21854681.330 -11779319.081 10 0 60486 1800.00000 0 6369758.292 -23052528.777 -8910200.370 10 0 60486 2700.00000 0 6602306.809 -23947825.798 -5868273.033 10 0 60486 3600.00000 0 6640020.059 -24498996.741 -2712565.738 10 0 60486 4500.00000 0 6529616.603 -24675296.930 495722.794 10 0 60486 5400.00000 0 6323290.819 -24458134.575 3694406.563 10 0 60486 6300.00000 0 6076270.364 -23841903.382 6821511.845 10 0 60486 7200.00000 0 5844254.126 -22834291.487 9816470.592 10 0 60486 8100.00000 0 5680838.700 -21456054.139 12621285.055 10 0 60486 9000.00000 0 5635041.708 -19740259.653 15181641.754 10 0 60486 9900.00000 0 5749025.979 -17731039.938 17447953.963 10 0 60486 10800.00000 0 6056120.177 -15481897.133 19376313.424 10 0 60486 11700.00000 0 6579218.991 -13053636.041 20929333.788 10 0 60486 12600.00000 0 7329630.340 -10512007.293 22076870.274 10 0 60486 13500.00000 0 8306418.550 -7925157.900 22796602.286 10 0 60486 14400.00000 0 9496272.035 -5360993.663 23074468.189 10 0 60486 15300.00000 0 10873902.460 -2884561.556 22904943.865 10 0 60486 16200.00000 0 12402960.400 -555559.474 22291159.432 10 0 60486 17100.00000 0 14037431.185 1573924.388 21244851.176 10 0 60486 18000.00000 0 15723454.512 3461349.317 19786148.628 10 0 60486 18900.00000 0 17401493.601 5075256.991 17943199.643 10 0 60486 19800.00000 0 19008764.666 6396339.757 15751639.295 10 0 60486 20700.00000 0 20481826.041 7417997.704 13253911.489 10 0 60486 21600.00000 0 21759218.974 8146361.091 10498455.128 10 0 60486 22500.00000 0 22784049.181 8599777.065 7538769.612 10 0 60486 23400.00000 0 23506400.097 8807782.167 4432377.247 10 0 60486 24300.00000 0 23885475.176 8809604.078 1239702.537 10 0 60486 25200.00000 0 23891377.639 8652256.269 -1977109.525 10 0 60486 26100.00000 0 23506451.059 8388306.841 -5155412.383 10 0 60486 27000.00000 0 22726122.706 8073417.110 -8233289.235 10 0 60486 27900.00000 0 21559212.701 7763755.497 -11150771.475 10 0 60486 28800.00000 0 20027694.866 7513397.906 -13851019.066 10 0 60486 29700.00000 0 18165918.647 7371826.259 -16281438.575 10 0 60486 30600.00000 0 16019324.509 7381632.751 -18394715.999 10 0 60486 31500.00000 0 13642706.896 7576528.249 -20149743.441 10 0 60486 32400.00000 0 11098097.892 7979740.185 -21512421.200 10 0 60486 33300.00000 0 8452360.722 8602868.305 -22456319.625 10 0 60486 34200.00000 0 5774594.207 9445246.948 -22963188.167 10 0 60486 35100.00000 0 3133456.834 10493840.816 -23023302.315 10 0 60486 36000.00000 0 594522.108 11723678.447 -22635642.492 10 0 60486 36900.00000 0 -1782224.961 13098804.811 -21807902.298 10 0 60486 37800.00000 0 -3944646.741 14573712.580 -20556326.880 10 0 60486 38700.00000 0 -5850374.406 16095191.580 -18905385.401 10 0 60486 39600.00000 0 -7468313.465 17604518.421 -16887284.729 10 0 60486 40500.00000 0 -8779672.635 19039894.212 -14541334.413 10 0 60486 41400.00000 0 -9778475.342 20339028.048 -11913175.725 10 0 60486 42300.00000 0 -10471534.793 21441757.924 -9053890.126 10 0 60486 43200.00000 0 -10877895.962 22292599.402 -6019004.688 10 0 60486 44100.00000 0 -11027770.071 22843115.462 -2867413.884 10 0 60486 45000.00000 0 -10961008.108 23054008.552 339761.253 10 0 60486 45900.00000 0 -10725179.091 22896847.608 3540354.556 10 0 60486 46800.00000 0 -10373334.999 22355358.068 6672354.041 10 0 60486 47700.00000 0 -9961557.118 21426221.189 9675096.162 10 0 60486 48600.00000 0 -9546387.406 20119349.405 12490432.349 10 0 60486 49500.00000 0 -9182252.962 18457626.123 15063845.910 10 0 60486 50400.00000 0 -8918991.750 16476120.560 17345498.407 10 0 60486 51300.00000 0 -8799583.284 14220809.690 19291186.147 10 0 60486 52200.00000 0 -8858179.351 11746859.602 20863189.191 10 0 60486 53100.00000 0 -9118517.337 9116536.580 22030997.260 10 0 60486 54000.00000 0 -9592782.877 6396833.242 22771899.222 10 0 60486 54900.00000 0 -10280970.060 3656906.733 23071425.178 10 0 60486 55800.00000 0 -11170766.902 965433.688 22923632.710 10 0 60486 56700.00000 0 -12237972.179 -1612009.797 22331231.504 10 0 60486 57600.00000 0 -13447427.773 -4015435.827 21305543.288 10 0 60486 58500.00000 0 -14754429.213 -6192697.683 19866296.871 10 0 60486 59400.00000 0 -16106557.093 -8101415.234 18041261.001 10 0 60486 60300.00000 0 -17445854.184 -9710493.012 15865720.717 10 0 60486 61200.00000 0 -18711258.120 -11001167.737 13381805.910 10 0 60486 62100.00000 0 -19841188.282 -11967541.430 10637683.838 10 0 60486 63000.00000 0 -20776178.298 -12616577.600 7686630.174 10 0 60486 63900.00000 0 -21461443.006 -12967560.485 4585996.055 10 0 60486 64800.00000 0 -21849270.793 -13051040.084 1396090.980 10 0 60486 65700.00000 0 -21901139.091 -12907307.699 -1820996.420 10 0 60486 66600.00000 0 -21589462.136 -12584466.883 -5002616.035 10 0 60486 67500.00000 0 -20898895.503 -12136182.245 -8086787.565 10 0 60486 68400.00000 0 -19827140.680 -11619202.549 -11013420.167 10 0 60486 69300.00000 0 -18385214.310 -11090764.390 -13725495.250 10 0 60486 70200.00000 0 -16597169.637 -10605987.860 -16170188.099 10 0 60486 71100.00000 0 -14499281.132 -10215375.963 -18299905.341 10 0 60486 72000.00000 0 -12138726.249 -9962524.844 -20073217.249 10 0 60486 72900.00000 0 -9571819.605 -9882142.714 -21455666.277 10 0 60486 73800.00000 0 -6861873.739 -9998461.821 -22420436.081 10 0 60486 74700.00000 0 -4076776.257 -10324110.798 -22948868.269 10 0 60486 75600.00000 0 -1286384.757 -10859494.877 -23030817.450 10 0 60486 76500.00000 0 1440151.724 -11592709.728 -22664838.435 10 0 60486 77400.00000 0 4037033.373 -12499991.963 -21858202.866 10 0 60486 78300.00000 0 6444302.955 -13546686.677 -20626745.824 10 0 60486 79200.00000 0 8610089.089 -14688690.594 -18994546.270 10 0 60486 80100.00000 0 10492507.352 -15874309.509 -16993448.254 10 0 60486 81000.00000 0 12061141.768 -17046451.420 -14662432.835 10 0 60486 81900.00000 0 13298046.898 -18145062.785 -12046853.363 10 0 60486 82800.00000 0 14198230.878 -19109705.360 -9197549.364 10 0 60486 83700.00000 0 14769601.471 -19882165.275 -6169856.485 10 0 60486 84600.00000 0 15032379.542 -20408984.891 -3022531.815 10 0 60486 85500.00000 0 15018006.558 -20643811.253 183384.454 10 0 60487 0.00000 0 14767593.664 -20549462.903 3385748.761 10 0 60487 900.00000 0 14329978.657 -20099628.422 6522514.318 10 0 60487 1800.00000 0 13759473.802 -19280125.931 9532924.411 10 0 60487 2700.00000 0 13113399.253 -18089670.653 12358681.954 10 0 60487 3600.00000 0 12449506.188 -16540118.351 14945068.978 10 0 60487 4500.00000 0 11823397.698 -14656174.064 17241996.869 10 0 60487 5400.00000 0 11286055.422 -12474577.601 19204967.604 10 0 60487 6300.00000 0 10881575.317 -10042798.691 20795928.312 10 0 60487 7200.00000 0 10645207.158 -7417294.813 21984003.449 10 0 60487 8100.00000 0 10601779.762 -4661402.534 22746091.141 10 0 60487 9000.00000 0 10764577.974 -1842948.181 23067312.626 10 0 60487 9900.00000 0 11134718.886 968324.775 22941306.214 10 0 60487 10800.00000 0 11701054.193 3703406.621 22370359.867 10 0 60487 11700.00000 0 12440603.893 6296642.217 21365379.202 10 0 60487 12600.00000 0 13319504.543 8688214.150 19945690.538 10 0 60487 13500.00000 0 14294433.801 10826386.015 18138681.600 10 0 60487 14400.00000 0 15314452.925 12669413.051 15979285.346 10 0 60487 15300.00000 0 16323191.101 14187040.680 13509315.538 10 0 60487 16200.00000 0 17261280.602 15361528.327 10776665.595 10 0 60487 17100.00000 0 18068940.664 16188155.396 7834385.229 10 0 60487 18000.00000 0 18688601.013 16675187.891 4739652.130 10 0 60487 18900.00000 0 19067453.653 16843306.840 1552658.515 10 0 60487 19800.00000 0 19159823.961 16724522.622 -1664565.612 10 0 60487 20700.00000 0 18929259.376 16360621.216 -4849368.778 10 0 60487 21600.00000 0 18350245.617 15801208.656 -7939709.248 10 0 60487 22500.00000 0 17409476.111 15101437.288 -10875375.828 10 0 60487 23400.00000 0 16106619.320 14319511.219 -13599173.047 10 0 60487 24300.00000 0 14454550.133 13514077.858 -16058046.343 10 0 60487 25200.00000 0 12479034.446 12741617.276 -18204124.191 10 0 60487 26100.00000 0 10217879.463 12053941.044 -19995656.037 10 0 60487 27000.00000 0 7719585.029 11495907.243 -21397827.329 10 0 60487 27900.00000 0 5041552.378 11103448.793 -22383435.721 10 0 60487 28800.00000 0 2247925.412 10901998.549 -22933415.529 10 0 60487 29700.00000 0 -592845.202 10905377.412 -23037200.861 10 0 60487 30600.00000 0 -3410613.426 11115191.767 -22692921.098 10 0 60487 31500.00000 0 -6136215.979 11520764.815 -21907425.841 10 0 60487 32400.00000 0 -8704106.089 12099603.698 -20696139.721 10 0 60487 33300.00000 0 -11054833.974 12818381.702 -19082750.777 10 0 60487 34200.00000 0 -13137271.836 13634393.156 -17098739.196 10 0 60487 35100.00000 0 -14910492.149 14497418.931 -14782756.197 10 0 60487 36000.00000 0 -16345222.698 15351923.278 -12179865.606 10 0 60487 36900.00000 0 -17424819.576 16139489.042 -9340663.222 10 0 60487 37800.00000 0 -18145719.565 16801388.447 -6320291.324 10 0 60487 38700.00000 0 -18517355.074 17281181.151 -3177367.569 10 0 60487 39600.00000 0 -18561537.126 17527230.287 27150.836 10 0 60487 40500.00000 0 -18311334.032 17495030.790 3231145.721 10 0 60487 41400.00000 0 -17809494.240 17149252.328 6372536.637 10 0 60487 42300.00000 0 -17106480.614 16465411.162 9390476.657 10 0 60487 43200.00000 0 -16258199.411 15431100.794 12226522.607 10 0 60487 44100.00000 0 -15323519.534 14046729.686 14825757.707 10 0 60487 45000.00000 0 -14361686.160 12325734.771 17137845.606 10 0 60487 45900.00000 0 -13429736.900 10294261.089 19117996.312 10 0 60487 46800.00000 0 -12580028.274 7990319.882 20727826.234 10 0 60487 47700.00000 0 -11857975.592 5462458.846 21936096.555 10 0 60487 48600.00000 0 -11300100.366 2767998.205 22719316.361 10 0 60487 49500.00000 0 -10932466.641 -29095.991 23062199.379 10 0 60487 50400.00000 0 -10769571.645 -2860614.958 22957965.607 10 0 60487 51300.00000 0 -10813737.464 -5656688.906 22408481.794 10 0 60487 52200.00000 0 -11055029.806 -8348442.056 21424237.479 10 0 60487 53100.00000 0 -11471708.188 -10870612.213 20024156.043 10 0 60487 54000.00000 0 -12031189.797 -13164027.223 18235243.235 10 0 60487 54900.00000 0 -12691487.751 -15177836.038 16092078.507 10 0 60487 55800.00000 0 -13403064.445 -16871401.738 13636157.621 10 0 60487 56700.00000 0 -14111022.872 -18215777.461 10915097.909 10 0 60487 57600.00000 0 -14757544.082 -19194703.205 7981720.535 10 0 60487 58500.00000 0 -15284467.956 -19805081.259 4893026.917 10 0 60487 59400.00000 0 -15635907.806 -20056909.848 1709088.954 10 0 60487 60300.00000 0 -15760787.252 -19972677.508 -1508125.142 10 0 60487 61200.00000 0 -15615190.648 -19586243.632 -4695965.802 10 0 60487 62100.00000 0 -15164425.880 -18941252.750 -7792333.175 10 0 60487 63000.00000 0 -14384710.423 -18089150.145 -10736899.039 10 0 60487 63900.00000 0 -13264407.486 -17086883.623 -13472294.308 10 0 60487 64800.00000 0 -11804758.379 -15994389.774 -15945237.688 10 0 60487 65700.00000 0 -10020078.763 -14871972.185 -18107582.363 10 0 60487 66600.00000 0 -7937409.461 -13777683.625 -19917259.455 10 0 60487 67500.00000 0 -5595635.783 -12764823.672 -21339099.428 10 0 60487 68400.00000 0 -3044111.927 -11879658.053 -22345515.382 10 0 60487 69300.00000 0 -340847.922 -11159456.099 -22917035.175 10 0 60487 70200.00000 0 2449665.074 -10630928.789 -23042672.609 10 0 60487 71100.00000 0 5258900.335 -10309132.527 -22720131.223 10 0 60487 72000.00000 0 8016910.049 -10196883.819 -21955837.606 10 0 60487 72900.00000 0 10655000.035 -10284708.226 -20764804.483 10 0 60487 73800.00000 0 13108353.846 -10551324.332 -19170327.087 10 0 60487 74700.00000 0 15318497.753 -10964640.975 -17203519.473 10 0 60487 75600.00000 0 17235505.053 -11483224.425 -14902700.410 10 0 60487 76500.00000 0 18819849.265 -12058172.576 -12312641.268 10 0 60487 77400.00000 0 20043830.501 -12635316.320 -9483690.891 10 0 60487 78300.00000 0 20892517.302 -13157654.655 -6470794.725 10 0 60487 79200.00000 0 21364166.417 -13567920.567 -3332427.360 10 0 60487 80100.00000 0 21470104.807 -13811169.342 -129459.323 10 0 60487 81000.00000 0 21234080.533 -13837280.288 3076019.975 10 0 60487 81900.00000 0 20691111.171 -13603266.616 6221900.469 10 0 60487 82800.00000 0 19885879.206 -13075296.394 9247247.900 10 0 60487 83700.00000 0 18870742.496 -12230339.687 12093475.781 10 0 60487 84600.00000 0 17703443.596 -11057372.596 14705470.822 10 0 60487 85500.00000 0 16444614.017 -9558087.386 17032650.731 10 0 60488 0.00000 0 15155177.760 -7747078.490 19029934.647 10 0 60488 900.00000 0 13893761.618 -5651494.597 20658609.376 10 0 60488 1800.00000 0 12714221.597 -3310172.444 21887072.879 10 0 60488 2700.00000 0 11663385.897 -772283.546 22691444.991 10 0 60488 3600.00000 0 10779109.837 1904449.487 23056031.268 10 0 60488 4500.00000 0 10088722.913 4655895.848 22973632.321 10 0 60488 5400.00000 0 9607932.803 7413931.644 22445692.253 10 0 60488 6300.00000 0 9340232.319 10109028.911 21482282.761 10 0 60488 7200.00000 0 9276834.531 12672912.736 20101922.246 10 0 60488 8100.00000 0 9397139.512 15041177.419 18331232.215 10 0 60488 9000.00000 0 9669713.976 17155753.788 16204436.182 10 0 60488 9900.00000 0 10053743.538 18967125.273 13762709.343 10 0 60488 10800.00000 0 10500897.251 20436200.318 11053390.284 10 0 60488 11700.00000 0 10957526.354 21535762.469 8129068.910 10 0 60488 12600.00000 0 11367104.548 22251436.812 5046567.617 10 0 60488 13500.00000 0 11672806.316 22582131.516 1865835.256 10 0 60488 14400.00000 0 11820113.404 22539935.358 -1351224.418 10 0 60488 15300.00000 0 11759337.855 22149475.107 -4541966.275 10 0 60488 16200.00000 0 11447953.130 21446759.838 -7644234.690 10 0 60488 17100.00000 0 10852632.780 20477561.193 -10597586.491 10 0 60488 18000.00000 0 9950908.475 19295398.656 -13344480.756 10 0 60488 18900.00000 0 8732375.453 17959215.796 -15831410.920 10 0 60488 19800.00000 0 7199392.866 16530846.702 -18009956.024 10 0 60488 20700.00000 0 5367248.141 15072380.645 -19837729.712 10 0 60488 21600.00000 0 3263777.479 13643537.056 -21279208.056 10 0 60488 22500.00000 0 928457.746 12299162.162 -22306419.961 10 0 60488 23400.00000 0 -1588992.489 11086952.988 -22899486.947 10 0 60488 24300.00000 0 -4230444.378 10045504.350 -23047002.398 10 0 60488 25200.00000 0 -6931546.197 9202760.336 -22746243.617 10 0 60488 26100.00000 0 -9624175.434 8574934.324 -22003213.484 10 0 60488 27000.00000 0 -12239053.443 8165941.529 -20832511.774 10 0 60488 27900.00000 0 -14708414.075 7967366.268 -19257039.531 10 0 60488 28800.00000 0 -16968615.543 7958963.591 -17307542.986 10 0 60488 29700.00000 0 -18962587.577 8109672.453 -15022006.506 10 0 60488 30600.00000 0 -20642012.873 8379096.179 -12444906.878 10 0 60488 31500.00000 0 -21969153.155 8719386.536 -9626343.771 10 0 60488 32400.00000 0 -22918245.069 9077450.927 -6621063.555 10 0 60488 33300.00000 0 -23476409.219 9397388.896 -3487395.538 10 0 60488 34200.00000 0 -23644035.878 9623054.715 -286121.382 10 0 60488 35100.00000 0 -23434632.822 9700637.785 2920700.394 10 0 60488 36000.00000 0 -22874143.042 9581151.991 6070932.219 10 0 60488 36900.00000 0 -21999762.017 9222729.240 9103554.597 10 0 60488 37800.00000 0 -20858304.961 8592620.654 11959839.810 10 0 60488 38700.00000 0 -19504192.865 7668821.272 14584480.104 10 0 60488 39600.00000 0 -17997141.748 6441249.795 16926649.220 10 0 60488 40500.00000 0 -16399651.539 4912433.416 18940977.615 10 0 60488 41400.00000 0 -14774399.013 3097668.208 20588423.435 10 0 60488 42300.00000 0 -13181642.926 1024647.148 21837023.246 10 0 60488 43200.00000 0 -11676748.814 -1267430.300 22662508.766 10 0 60488 44100.00000 0 -10307935.860 -3729231.855 23048778.207 10 0 60488 45000.00000 0 -9114339.082 -6303094.285 22988213.269 10 0 60488 45900.00000 0 -8124467.148 -8925180.749 22481835.535 10 0 60488 46800.00000 0 -7355119.925 -11527906.105 21539298.628 10 0 60488 47700.00000 0 -6810811.008 -14042531.264 20178715.381 10 0 60488 48600.00000 0 -6483719.689 -16401820.305 18426322.114 10 0 60488 49500.00000 0 -6354174.870 -18542650.869 16315985.109 10 0 60488 50400.00000 0 -6391651.249 -20408469.645 13888557.377 10 0 60488 51300.00000 0 -6556236.462 -21951490.569 11191096.840 10 0 60488 52200.00000 0 -6800507.834 -23134543.515 8275959.964 10 0 60488 53100.00000 0 -7071739.689 -23932495.327 5199787.734 10 0 60488 54000.00000 0 -7314347.689 -24333182.732 2022403.382 10 0 60488 54900.00000 0 -7472466.129 -24337817.033 -1194356.511 10 0 60488 55800.00000 0 -7492547.909 -23960842.803 -4387854.096 10 0 60488 56700.00000 0 -7325875.550 -23229256.061 -7495880.915 10 0 60488 57600.00000 0 -6930875.109 -22181410.576 -10457881.868 10 0 60488 58500.00000 0 -6275133.091 -20865362.910 -13216147.234 10 0 60488 59400.00000 0 -5337029.133 -19336826.656 -15716948.161 10 0 60488 60300.00000 0 -4106913.673 -17656822.965 -17911592.369 10 0 60488 61200.00000 0 -2587779.448 -15889127.437 -19757378.595 10 0 60488 62100.00000 0 -795397.314 -14097621.784 -21218430.702 10 0 60488 63000.00000 0 1242090.153 -12343662.461 -22266395.101 10 0 60488 63900.00000 0 3485100.746 -10683577.323 -22880988.151 10 0 60488 64800.00000 0 5884031.593 -9166395.377 -23050383.414 10 0 60488 65700.00000 0 8381105.766 -7831904.467 -22771431.999 10 0 60488 66600.00000 0 10912569.349 -6709117.358 -22049712.580 10 0 60488 67500.00000 0 13411147.301 -5815209.191 -20899411.004 10 0 60488 68400.00000 0 15808655.804 -5154969.105 -19343032.690 10 0 60488 69300.00000 0 18038662.438 -4720787.108 -17410954.174 10 0 60488 70200.00000 0 20039083.767 -4493174.723 -15140823.140 10 0 60488 71100.00000 0 21754612.707 -4441795.526 -12576819.105 10 0 60488 72000.00000 0 23138875.329 -4526960.459 -9768789.497 10 0 60488 72900.00000 0 24156228.160 -4701523.409 -6771278.207 10 0 60488 73800.00000 0 24783122.164 -4913095.986 -3642465.599 10 0 60488 74700.00000 0 25008977.698 -5106487.255 -443040.677 10 0 60488 75600.00000 0 24836535.167 -5226265.019 2764972.740 10 0 60488 76500.00000 0 24281667.936 -5219330.350 5919413.254 10 0 60488 77400.00000 0 23372666.362 -5037396.796 8959179.537 10 0 60488 78300.00000 0 22149023.691 -4639269.836 11825405.678 10 0 60488 79200.00000 0 20659775.075 -3992830.679 14462592.047 10 0 60488 80100.00000 0 18961459.291 -3076640.921 16819670.511 10 0 60488 81000.00000 0 17115788.077 -1881100.367 18850984.266 10 0 60488 81900.00000 0 15187119.830 -409108.867 20517164.253 10 0 60488 82800.00000 0 13239842.263 1323796.535 21785886.061 10 0 60488 83700.00000 0 11335772.113 3289836.259 22632493.455 10 0 60488 84600.00000 0 9531679.219 5449899.944 23040477.018 10 0 60488 85500.00000 0 7877037.077 7754939.313 23001798.841 10 0 60489 0.00000 0 6412092.876 10147786.135 22517056.924 10 0 60489 900.00000 0 5166336.040 12565323.138 21595485.219 10 0 60489 1800.00000 0 4157430.765 14940916.367 20254789.126 10 0 60489 2700.00000 0 3390654.436 17207013.748 18520817.573 10 0 60489 3600.00000 0 2858867.607 19297799.780 16427077.123 10 0 60489 4500.00000 0 2543016.340 21151797.676 14014095.888 10 0 60489 5400.00000 0 2413146.337 22714310.350 11328648.244 10 0 60489 6300.00000 0 2429886.540 23939597.877 8422854.209 10 0 60489 7200.00000 0 2546339.771 24792699.484 5353170.262 10 0 60489 8100.00000 0 2710300.385 25250822.622 2179290.906 10 0 60489 9000.00000 0 2866704.592 25304239.634 -1037017.527 10 0 60489 9900.00000 0 2960208.710 24956653.190 -4233127.433 10 0 60489 10800.00000 0 2937784.777 24225014.262 -7346780.287 10 0 60489 11700.00000 0 2751221.871 23138799.757 -10317311.555 10 0 60489 12600.00000 0 2359425.332 21738780.105 -13086844.883 10 0 60489 13500.00000 0 1730414.651 20075329.006 -15601430.926 10 0 60489 14400.00000 0 842933.717 18206347.072 -17812107.506 10 0 60489 15300.00000 0 -312396.159 16194887.595 -19675859.497 10 0 60489 16200.00000 0 -1732430.404 14106585.124 -21156459.248 10 0 60489 17100.00000 0 -3401390.656 12006995.618 -22225171.057 10 0 60489 18000.00000 0 -5291294.846 9958960.371 -22861306.162 10 0 60489 18900.00000 0 -7362910.159 8020104.328 -23052618.016 10 0 60489 19800.00000 0 -9567189.099 6240573.283 -22795530.893 10 0 60489 20700.00000 0 -11847128.495 4661103.911 -22095198.236 10 0 60489 21600.00000 0 -14139973.724 3311506.129 -20965390.538 10 0 60489 22500.00000 0 -16379676.023 2209619.606 -19428215.788 10 0 60489 23400.00000 0 -18499500.377 1360786.140 -17513678.679 10 0 60489 24300.00000 0 -20434675.350 757857.818 -15259087.794 10 0 60489 25200.00000 0 -22124974.671 381738.383 -12708322.780 10 0 60489 26100.00000 0 -23517123.318 202432.943 -9910976.147 10 0 60489 27000.00000 0 -24566928.411 180559.968 -6921386.630 10 0 60489 27900.00000 0 -25241046.748 269260.312 -3797583.033 10 0 60489 28800.00000 0 -25518316.068 416421.592 -600159.186 10 0 60489 29700.00000 0 -25390595.434 567123.257 2608898.208 10 0 60489 30600.00000 0 -24863080.548 666198.742 5767406.218 10 0 60489 31500.00000 0 -23954081.681 660806.405 8814183.893 10 0 60489 32400.00000 0 -22694274.188 502900.873 11690229.208 10 0 60489 33300.00000 0 -21125453.342 151500.760 14339852.608 10 0 60489 34200.00000 0 -19298845.582 -425342.601 16711745.861 10 0 60489 35100.00000 0 -17273046.424 -1248958.270 18759966.460 10 0 60489 36000.00000 0 -15111670.453 -2328917.582 20444819.425 10 0 60489 36900.00000 0 -12880810.428 -3662393.187 21733620.345 10 0 60489 37800.00000 0 -10646410.230 -5234043.158 22601325.673 10 0 60489 38700.00000 0 -8471659.729 -7016426.479 23031018.666 10 0 60489 39600.00000 0 -6414518.738 -8970934.373 23014241.775 10 0 60489 40500.00000 0 -4525471.947 -11049200.714 22551168.963 10 0 60489 41400.00000 0 -2845607.310 -13194934.895 21650614.060 10 0 60489 42300.00000 0 -1405097.306 -15346102.889 20329874.111 10 0 60489 43200.00000 0 -222146.022 -17437367.471 18614409.513 10 0 60489 44100.00000 0 697554.075 -19402687.340 16537365.721 10 0 60489 45000.00000 0 1360832.780 -21177967.623 14138944.320 10 0 60489 45900.00000 0 1786519.567 -22703651.413 11465634.261 10 0 60489 46800.00000 0 2004409.453 -23927143.720 8569317.018 10 0 60489 47700.00000 0 2053760.769 -24804965.581 5506262.284 10 0 60489 48600.00000 0 1981388.337 -25304546.835 2336033.386 10 0 60489 49500.00000 0 1839433.081 -25405580.910 -879676.161 10 0 60489 50400.00000 0 1682903.298 -25100883.263 -4078251.656 10 0 60489 51300.00000 0 1567092.930 -24396716.098 -7197387.238 10 0 60489 52200.00000 0 1544987.736 -23312564.677 -10176311.715 10 0 60489 53100.00000 0 1664771.025 -21880374.102 -12956984.870 10 0 60489 54000.00000 0 1967536.396 -20143278.498 -15485239.589 10 0 60489 54900.00000 0 2485306.065 -18153876.298 -17711846.378 10 0 60489 55800.00000 0 3239440.168 -15972124.673 -19593478.600 10 0 60489 56700.00000 0 4239505.489 -13662942.264 -21093559.124 10 0 60489 57600.00000 0 5482652.346 -11293621.439 -22182971.744 10 0 60489 58500.00000 0 6953526.504 -8931159.146 -22840623.727 10 0 60489 59400.00000 0 8624720.171 -6639618.335 -23053849.060 10 0 60489 60300.00000 0 10457743.255 -4477630.157 -22818645.318 10 0 60489 61200.00000 0 12404474.085 -2496140.785 -22139740.371 10 0 60489 62100.00000 0 14409028.674 -736495.904 -21030488.566 10 0 60489 63000.00000 0 16409970.146 771058.644 -19512599.239 10 0 60489 63900.00000 0 18342765.781 2008399.245 -17615703.615 10 0 60489 64800.00000 0 20142388.959 2970029.384 -15376769.151 10 0 60489 65700.00000 0 21745957.352 3663048.175 -12839373.216 10 0 60489 66600.00000 0 23095297.371 4106586.180 -10052850.616 10 0 60489 67500.00000 0 24139328.052 4330734.435 -7071331.813 10 0 60489 68400.00000 0 24836165.314 4375013.607 -3952690.681 10 0 60489 69300.00000 0 25154859.211 4286449.357 -757422.329 10 0 60489 70200.00000 0 25076692.275 4117336.161 2452527.230 10 0 60489 71100.00000 0 24595985.346 3922784.683 5614957.040 10 0 60489 72000.00000 0 23720377.876 3758156.525 8668609.817 10 0 60489 72900.00000 0 22470571.462 3676494.643 11554350.431 10 0 60489 73800.00000 0 20879547.624 3726057.625 14216302.035 10 0 60489 74700.00000 0 18991292.486 3948061.494 16602918.537 10 0 60489 75600.00000 0 16859081.252 4374723.881 18667973.545 10 0 60489 76500.00000 0 14543393.292 5027692.804 20371447.575 10 0 60489 77400.00000 0 12109543.745 5916926.287 21680297.224 10 0 60489 78300.00000 0 9625128.946 7040070.441 22569092.253 10 0 60489 79200.00000 0 7157390.506 8382363.129 23020508.808 10 0 60489 80100.00000 0 4770606.207 9917068.717 23025669.509 10 0 60489 81000.00000 0 2523614.773 11606427.520 22584323.714 10 0 60489 81900.00000 0 467576.196 13403082.330 21704863.982 10 0 60489 82800.00000 0 -1355940.111 15251924.522 20404177.515 10 0 60489 83700.00000 0 -2916460.372 17092284.587 18707334.253 10 0 60489 84600.00000 0 -4195642.268 18860377.265 16647116.244 10 0 60489 85500.00000 0 -5187798.297 20491900.219 14263395.923 99